CAPE
1509 1574 1432 1326 1378 1444 1591 1701 1779 1947 2043 2028 1788 1632 1353 1214 1166 1336 1294 1321 1258 1223 1163 1115 1046 1060 1104 1233 1338 1489 1367 1036
1262 1272 1025 1172 974 940 1235 1356 1363 1661 1457 1487 1334 955 961 908 800 839 968 725 625 601 633 684 690 674 619 590 806 947 1190 1184
1165 1117 1319 1205 999 862 793 744 694 895 839 875 762 698 586 621 523 516 590 406 310 214 195 192 213 274 556 779 966 932 949 1216
1261 854 665 557 508 438 480 611 671 693 727 1060 970 798 433 284 197 135 108 38 10 6 39 76 164 275 454 440 484 466 610 721
1587 911 565 560 473 584 536 461 417 600 695 724 781 584 378 76 9 0 0 0 0 0 1 19 26 37 89 131 249 463 588 303
2059 1813 1211 416 425 460 756 480 488 479 567 175 352 174 72 0 0 0 0 0 0 0 0 0 0 0 0 0 0 0 8 44
2159 2103 1448 801 421 305 156 31 0 22 157 124 71 21 0 0 0 0 0 0 0 0 0 0 0 0 0 0 0 0 0 0
1253 1742 1110 783 290 38 0 0 0 0 6 8 0 0 0 0 0 0 0 0 0 0 0 0 0 0 0 0 0 0 0 0
1074 1090 1106 619 61 1 0 0 0 0 0 0 0 0 0 0 0 0 0 0 0 0 0 0 0 0 0 0 0 0 0 0
1194 946 1177 748 70 0 0 0 0 0 0 0 0 0 0 0 0 0 0 0 0 0 0 0 0 0 0 0 0 0 0 0
1037 964 643 123 0 0 0 0 0 0 0 0 0 0 0 0 0 0 0 0 0 0 0 0 0 0 0 0 0 0 0 0
695 220 2 0 0 0 0 0 0 0 0 0 0 0 0 0 0 0 0 0 0 0 0 0 0 0 0 0 0 0 0 5
895 530 0 0 0 0 0 0 0 0 0 0 0 0 0 0 0 0 0 0 0 0 0 0 0 0 0 0 0 0 0 0
736 556 193 0 0 0 0 0 0 0 0 0 0 0 0 0 0 0 0 0 0 0 0 0 0 0 0 0 0 0 0 0
468 310 31 0 0 0 0 0 0 0 0 0 0 0 0 0 0 0 0 0 0 0 0 0 0 0 0 0 0 0 0 0
265 151 7 0 0 0 0 0 0 0 0 0 0 0 0 0 0 0 0 0 0 0 0 0 0 0 0 0 0 0 0 0
202 47 0 0 0 0 0 0 0 0 0 0 0 0 0 0 0 0 0 0 0 0 0 0 0 0 0 0 0 0 0 0
159 18 0 0 0 0 0 0 0 0 0 0 0 0 0 0 0 0 0 0 0 0 0 0 0 0 0 0 0 0 0 0
15 38 5 0 0 0 0 0 0 0 0 0 0 0 0 0 0 0 0 0 0 0 0 0 0 0 0 0 0 0 0 0
34 50 27 0 0 0 0 0 0 0 0 0 0 0 0 0 0 0 0 0 0 0 0 0 0 0 0 0 0 0 0 0
CIN
-197 -155 -172 -206 -189 -164 -130 -109 -87 -73 -46 -34 -37 -42 -65 -68 -64 -38 -39 -31 -33 -34 -31 -26 -26 -35 -66 -55 -52 -44 -55 -81
-214 -177 -197 -182 -223 -208 -141 -131 -111 -72 -76 -58 -57 -98 -88 -72 -67 -57 -36 -56 -71 -70 -54 -39 -27 -32 -47 -58 -21 -59 -38 -41
-215 -198 -129 -131 -167 -179 -174 -193 -174 -138 -128 -102 -95 -74 -73 -52 -61 -78 -51 -93 -124 -150 -169 -187 -166 -126 -42 -11 -4 -5 -23 -30
-175 -222 -227 -199 -115 -167 -189 -154 -124 -109 -96 -23 -29 -43 -107 -108 -150 -180 -213 -279 -326 -343 -295 -253 -207 -124 -82 -106 -80 -60 -13 -31
-99 -180 -164 -61 -158 -134 -124 -146 -154 -107 -82 -54 -48 -55 -103 -219 -292 -25 -0 -0 -0 -0 -411 -356 -327 -310 -224 -196 -130 -62 -30 -102
-40 -42 -99 -131 -181 -163 -114 -152 -147 -117 -92 -167 -120 -177 -247 -0 -0 -0 -0 -0 -0 -0 -0 -0 -0 -0 -0 -0 -0 -0 -245 -223
-22 -13 -73 -117 -177 -200 -232 -358 -0 -199 -172 -208 -241 -273 -0 -0 -0 -0 -0 -0 -0 -0 -0 -0 -0 -0 -0 -0 -0 -0 -0 -0
-117 -22 -79 -111 -195 -268 -52 -0 -0 -0 -117 -107 -0 -0 -0 -0 -0 -0 -0 -0 -0 -0 -0 -0 -0 -0 -0 -0 -0 -0 -0 -0
-133 -97 -93 -147 -259 -288 -0 -0 -0 -0 -0 -0 -0 -0 -0 -0 -0 -0 -0 -0 -0 -0 -0 -0 -0 -0 -0 -0 -0 -0 -0 -0
-165 -140 -74 -107 -224 -0 -0 -0 -0 -0 -0 -0 -0 -0 -0 -0 -0 -0 -0 -0 -0 -0 -0 -0 -0 -0 -0 -0 -0 -0 -0 -0
-109 -107 -126 -244 -0 -0 -0 -0 -0 -0 -0 -0 -0 -0 -0 -0 -0 -0 -0 -0 -0 -0 -0 -0 -0 -0 -0 -0 -0 -0 -0 -0
-32 -55 -71 -0 -0 -0 -0 -0 -0 -0 -0 -0 -0 -0 -0 -0 -0 -0 -0 -0 -0 -0 -0 -0 -0 -0 -0 -0 -0 -0 -0 -0
-28 -26 -0 -0 -0 -0 -0 -0 -0 -0 -0 -0 -0 -0 -0 -0 -0 -0 -0 -0 -0 -0 -0 -0 -0 -0 -0 -0 -0 -0 -0 -0
-50 -35 -33 -0 -0 -0 -0 -0 -0 -0 -0 -0 -0 -0 -0 -0 -0 -0 -0 -0 -0 -0 -0 -0 -0 -0 -0 -0 -0 -0 -0 -0
-57 -53 -82 -0 -0 -0 -0 -0 -0 -0 -0 -0 -0 -0 -0 -0 -0 -0 -0 -0 -0 -0 -0 -0 -0 -0 -0 -0 -0 -0 -0 -0
-54 -65 -28 -0 -0 -0 -0 -0 -0 -0 -0 -0 -0 -0 -0 -0 -0 -0 -0 -0 -0 -0 -0 -0 -0 -0 -0 -0 -0 -0 -0 -0
-54 -65 -0 -0 -0 -0 -0 -0 -0 -0 -0 -0 -0 -0 -0 -0 -0 -0 -0 -0 -0 -0 -0 -0 -0 -0 -0 -0 -0 -0 -0 -0
-65 -59 -0 -0 -0 -0 -0 -0 -0 -0 -0 -0 -0 -0 -0 -0 -0 -0 -0 -0 -0 -0 -0 -0 -0 -0 -0 -0 -0 -0 -0 -0
-52 -35 -33 -0 -0 -0 -0 -0 -0 -0 -0 -0 -0 -0 -0 -0 -0 -0 -0 -0 -0 -0 -0 -0 -0 -0 -0 -0 -0 -0 -0 -0
-33 -22 -37 -1 -0 -0 -0 -0 -0 -0 -0 -0 -0 -0 -0 -0 -0 -0 -0 -0 -0 -0 -0 -0 -0 -0 -0 -0 -0 -0 -0 -0
Wind_Speed
33 30 30 32 30 26 25 24 24 23 18 17 19 19 20 22 21 20 20 18 16 16 15 13 10 9 9 10 12 14 16 17
34 31 27 27 28 28 25 25 22 23 20 18 18 20 23 25 22 21 21 19 15 14 13 11 9 10 8 14 16 14 17 18
35 32 27 26 27 25 25 27 23 22 19 19 17 16 21 21 22 22 20 18 14 13 9 9 11 13 14 19 22 21 19 21
35 35 30 25 25 23 22 23 21 18 17 16 16 18 20 22 21 22 20 nan nan nan nan nan 23 24 23 25 25 21 22 23
37 38 32 26 25 22 21 21 22 21 21 17 18 20 20 nan nan nan nan nan nan nan nan nan nan nan nan 26 26 26 26 25
36 36 31 28 24 24 25 24 25 25 22 20 22 24 nan nan nan nan nan nan nan nan nan nan nan nan nan nan nan nan nan nan
38 34 31 29 26 28 28 nan nan nan 25 25 nan nan nan nan nan nan nan nan nan nan nan nan nan nan nan nan nan nan nan nan
39 35 31 34 32 nan nan nan nan nan nan nan nan nan nan nan nan nan nan nan nan nan nan nan nan nan nan nan nan nan nan nan
40 40 38 38 nan nan nan nan nan nan nan nan nan nan nan nan nan nan nan nan nan nan nan nan nan nan nan nan nan nan nan nan
42 40 40 39 nan nan nan nan nan nan nan nan nan nan nan nan nan nan nan nan nan nan nan nan nan nan nan nan nan nan nan nan
39 41 41 39 nan nan nan nan nan nan nan nan nan nan nan nan nan nan nan nan nan nan nan nan nan nan nan nan nan nan nan nan
41 41 nan nan nan nan nan nan nan nan nan nan nan nan nan nan nan nan nan nan nan nan nan nan nan nan nan nan nan nan nan nan
41 44 nan nan nan nan nan nan nan nan nan nan nan nan nan nan nan nan nan nan nan nan nan nan nan nan nan nan nan nan nan nan
47 46 47 nan nan nan nan nan nan nan nan nan nan nan nan nan nan nan nan nan nan nan nan nan nan nan nan nan nan nan nan nan
48 47 nan nan nan nan nan nan nan nan nan nan nan nan nan nan nan nan nan nan nan nan nan nan nan nan nan nan nan nan nan nan
52 49 nan nan nan nan nan nan nan nan nan nan nan nan nan nan nan nan nan nan nan nan nan nan nan nan nan nan nan nan nan nan
50 nan nan nan nan nan nan nan nan nan nan nan nan nan nan nan nan nan nan nan nan nan nan nan nan nan nan nan nan nan nan nan
49 nan nan nan nan nan nan nan nan nan nan nan nan nan nan nan nan nan nan nan nan nan nan nan nan nan nan nan nan nan nan nan
nan nan nan nan nan nan nan nan nan nan nan nan nan nan nan nan nan nan nan nan nan nan nan nan nan nan nan nan nan nan nan nan
nan nan nan nan nan nan nan nan nan nan nan nan nan nan nan nan nan nan nan nan nan nan nan nan nan nan nan nan nan nan nan nan
Wind_Direction
283 287 287 283 286 288 288 281 280 280 281 287 292 296 296 291 294 290 289 288 290 291 291 293 306 326 350 355 354 345 334 329
283 286 284 284 282 283 283 283 280 279 281 284 295 299 298 295 292 291 287 286 288 288 292 304 313 299 333 355 334 331 324 325
290 286 281 282 279 284 286 285 284 281 282 294 299 302 295 291 296 294 291 295 298 286 288 289 275 289 302 291 302 305 314 316
290 286 286 289 284 285 287 283 280 280 286 294 291 293 296 298 294 291 285 nan nan nan nan nan 273 279 283 283 289 290 289 289
288 290 290 284 280 282 281 275 272 268 272 286 292 285 277 nan nan nan nan nan nan nan nan nan nan nan nan 284 287 284 285 283
289 291 291 284 280 276 276 272 267 266 265 263 280 279 nan nan nan nan nan nan nan nan nan nan nan nan nan nan nan nan nan nan
293 291 285 289 277 270 274 nan nan nan 271 268 nan nan nan nan nan nan nan nan nan nan nan nan nan nan nan nan nan nan nan nan
293 293 280 277 272 nan nan nan nan nan nan nan nan nan nan nan nan nan nan nan nan nan nan nan nan nan nan nan nan nan nan nan
295 286 280 277 nan nan nan nan nan nan nan nan nan nan nan nan nan nan nan nan nan nan nan nan nan nan nan nan nan nan nan nan
288 283 280 278 nan nan nan nan nan nan nan nan nan nan nan nan nan nan nan nan nan nan nan nan nan nan nan nan nan nan nan nan
280 280 281 281 nan nan nan nan nan nan nan nan nan nan nan nan nan nan nan nan nan nan nan nan nan nan nan nan nan nan nan nan
283 282 nan nan nan nan nan nan nan nan nan nan nan nan nan nan nan nan nan nan nan nan nan nan nan nan nan nan nan nan nan nan
283 278 nan nan nan nan nan nan nan nan nan nan nan nan nan nan nan nan nan nan nan nan nan nan nan nan nan nan nan nan nan nan
280 282 280 nan nan nan nan nan nan nan nan nan nan nan nan nan nan nan nan nan nan nan nan nan nan nan nan nan nan nan nan nan
287 283 nan nan nan nan nan nan nan nan nan nan nan nan nan nan nan nan nan nan nan nan nan nan nan nan nan nan nan nan nan nan
288 288 nan nan nan nan nan nan nan nan nan nan nan nan nan nan nan nan nan nan nan nan nan nan nan nan nan nan nan nan nan nan
285 nan nan nan nan nan nan nan nan nan nan nan nan nan nan nan nan nan nan nan nan nan nan nan nan nan nan nan nan nan nan nan
287 nan nan nan nan nan nan nan nan nan nan nan nan nan nan nan nan nan nan nan nan nan nan nan nan nan nan nan nan nan nan nan
nan nan nan nan nan nan nan nan nan nan nan nan nan nan nan nan nan nan nan nan nan nan nan nan nan nan nan nan nan nan nan nan
nan nan nan nan nan nan nan nan nan nan nan nan nan nan nan nan nan nan nan nan nan nan nan nan nan nan nan nan nan nan nan nan